When you browse on this site, cookies collect data to enhance your experience and personalize the content and advertising you see.
Visit our Privacy Policy to learn more. By continuing to use the site, you agree to this use of cookies and data.
  • In Switzerland
  • List of Countries
  • For 7 days
  • Water Temperature
  • Weather Map
  • Weather Widgets
  • user-avatar
    Login

    Hourly Weather Kuzminki

    Today, 5 June, Friday

    Time Temperature Precipitation Wind Pressure Humidity
    00:00 +11°C° 0 mm 3 mps 741 mmHg 93%
    01:00 +11°C° 0 mm 3 mps 741 mmHg 93%
    02:00 +10°C° 0 mm 3 mps 741 mmHg 93%
    03:00 +10°C° 0 mm 3 mps 741 mmHg 94%
    04:00 +11°C° 0 mm 3 mps 741 mmHg 93%
    05:00 +11°C° 0 mm 3 mps 742 mmHg 91%
    06:00 +12°C° 0 mm 4 mps 742 mmHg 89%
    07:00 +13°C° 0 mm 4 mps 742 mmHg 86%
    08:00 +15°C° 0 mm 5 mps 742 mmHg 82%
    09:00 +16°C° 0 mm 5 mps 742 mmHg 77%
    10:00 +17°C° 0.2 mm 6 mps 742 mmHg 75%
    11:00 +17°C° 0.2 mm 7 mps 742 mmHg 72%
    12:00 +18°C° 0.2 mm 7 mps 742 mmHg 70%
    13:00 +17°C° 0.6 mm 8 mps 742 mmHg 74%
    14:00 +17°C° 0.6 mm 8 mps 742 mmHg 78%
    15:00 +16°C° 0.6 mm 8 mps 742 mmHg 81%
    16:00 +15°C° 0.6 mm 8 mps 742 mmHg 85%
    17:00 +14°C° 0.6 mm 7 mps 741 mmHg 89%
    18:00 +13°C° 0.6 mm 6 mps 741 mmHg 92%
    19:00 +13°C° 0.5 mm 6 mps 742 mmHg 93%
    20:00 +13°C° 0.5 mm 5 mps 742 mmHg 94%
    21:00 +12°C° 0.5 mm 4 mps 742 mmHg 95%
    22:00 +12°C° 0.4 mm 4 mps 742 mmHg 96%
    23:00 +12°C° 0.4 mm 4 mps 742 mmHg 96%

    Tomorrow, 6 June, Saturday

    Time Temperature Precipitation Wind Pressure Humidity
    00:00 +12°C° 0.4 mm 4 mps 742 mmHg 97%
    01:00 +12°C° 0 mm 3 mps 742 mmHg 97%
    02:00 +13°C° 0 mm 3 mps 743 mmHg 97%
    03:00 +13°C° 0 mm 3 mps 743 mmHg 97%
    04:00 +13°C° 0 mm 3 mps 743 mmHg 97%
    05:00 +13°C° 0 mm 3 mps 743 mmHg 97%
    06:00 +13°C° 0 mm 3 mps 743 mmHg 97%
    07:00 +14°C° 0 mm 3 mps 743 mmHg 95%
    08:00 +17°C° 0 mm 3 mps 744 mmHg 93%
    09:00 +18°C° 0 mm 3 mps 744 mmHg 91%
    10:00 +19°C° 0 mm 4 mps 744 mmHg 89%
    11:00 +19°C° 0 mm 4 mps 744 mmHg 87%
    12:00 +20°C° 0 mm 5 mps 744 mmHg 85%
    13:00 +21°C° 0.2 mm 5 mps 744 mmHg 83%
    14:00 +22°C° 0.2 mm 4 mps 744 mmHg 81%
    15:00 +23°C° 0.2 mm 4 mps 744 mmHg 79%
    16:00 +23°C° 0.2 mm 4 mps 744 mmHg 80%
    17:00 +24°C° 0.2 mm 3 mps 744 mmHg 82%
    18:00 +22°C° 0.2 mm 3 mps 744 mmHg 84%
    19:00 +21°C° 0.6 mm 3 mps 744 mmHg 86%
    20:00 +20°C° 0.6 mm 3 mps 744 mmHg 89%
    21:00 +19°C° 0.6 mm 2 mps 744 mmHg 92%
    22:00 +19°C° 0.2 mm 2 mps 745 mmHg 93%
    23:00 +18°C° 0.2 mm 2 mps 745 mmHg 94%

    Day after tomorrow, 7 June, Sunday

    Time Temperature Precipitation Wind Pressure Humidity
    00:00 +18°C° 0.2 mm 3 mps 745 mmHg 94%
    01:00 +18°C° 0 mm 2 mps 745 mmHg 94%
    02:00 +17°C° 0 mm 2 mps 745 mmHg 94%
    03:00 +17°C° 0 mm 2 mps 745 mmHg 95%
    04:00 +17°C° 0 mm 2 mps 746 mmHg 94%
    05:00 +18°C° 0 mm 2 mps 746 mmHg 94%
    06:00 +19°C° 0 mm 1 mps 746 mmHg 94%
    07:00 +20°C° 0 mm 1 mps 746 mmHg 90%
    08:00 +22°C° 0 mm 1 mps 746 mmHg 85%
    09:00 +23°C° 0 mm 1 mps 747 mmHg 81%
    10:00 +24°C° 1 mm 2 mps 747 mmHg 79%
    11:00 +25°C° 1 mm 2 mps 747 mmHg 76%
    12:00 +26°C° 1 mm 3 mps 747 mmHg 74%
    13:00 +26°C° 0.8 mm 3 mps 747 mmHg 73%
    14:00 +26°C° 0.8 mm 3 mps 747 mmHg 73%
    15:00 +26°C° 0.8 mm 3 mps 747 mmHg 72%
    16:00 +26°C° 0.2 mm 3 mps 747 mmHg 75%
    17:00 +26°C° 0.2 mm 3 mps 747 mmHg 78%
    18:00 +25°C° 0.2 mm 3 mps 747 mmHg 80%
    19:00 +24°C° 0 mm 2 mps 747 mmHg 84%
    20:00 +23°C° 0 mm 2 mps 747 mmHg 87%
    21:00 +20°C° 0 mm 2 mps 747 mmHg 91%
    22:00 +21°C° 0 mm 1 mps 747 mmHg 92%
    23:00 +20°C° 0 mm 1 mps 747 mmHg 92%

    8 June, Monday

    Time Temperature Precipitation Wind Pressure Humidity
    00:00 +20°C° 0 mm 1 mps 747 mmHg 93%
    01:00 +19°C° 0 mm 1 mps 747 mmHg 93%
    02:00 +19°C° 0 mm 1 mps 747 mmHg 93%
    03:00 +19°C° 0 mm 1 mps 747 mmHg 94%
    04:00 +18°C° 0 mm 2 mps 747 mmHg 93%
    05:00 +18°C° 0 mm 2 mps 747 mmHg 93%
    06:00 +19°C° 0 mm 2 mps 748 mmHg 93%
    07:00 +20°C° 0 mm 2 mps 748 mmHg 90%
    08:00 +21°C° 0 mm 3 mps 748 mmHg 87%
    09:00 +24°C° 0 mm 3 mps 748 mmHg 84%
    10:00 +23°C° 0.3 mm 4 mps 748 mmHg 82%
    11:00 +25°C° 0.3 mm 4 mps 748 mmHg 80%
    12:00 +26°C° 0.3 mm 4 mps 748 mmHg 78%
    13:00 +26°C° 0.2 mm 4 mps 748 mmHg 76%
    14:00 +26°C° 0.2 mm 5 mps 747 mmHg 75%
    15:00 +26°C° 0.2 mm 5 mps 747 mmHg 74%
    16:00 +25°C° 0 mm 4 mps 747 mmHg 75%
    17:00 +25°C° 0 mm 4 mps 747 mmHg 77%
    18:00 +25°C° 0 mm 3 mps 747 mmHg 78%
    19:00 +22°C° 0 mm 3 mps 747 mmHg 82%
    20:00 +21°C° 0 mm 3 mps 747 mmHg 85%
    21:00 +19°C° 0 mm 2 mps 747 mmHg 89%
    22:00 +19°C° 0 mm 2 mps 747 mmHg 90%
    23:00 +18°C° 0 mm 2 mps 747 mmHg 91%

    9 June, Tuesday

    Time Temperature Precipitation Wind Pressure Humidity
    00:00 +18°C° 0 mm 2 mps 747 mmHg 91%
    01:00 +17°C° 0 mm 2 mps 747 mmHg 92%
    02:00 +17°C° 0 mm 2 mps 747 mmHg 93%
    03:00 +16°C° 0 mm 2 mps 747 mmHg 93%
    04:00 +17°C° 0 mm 2 mps 747 mmHg 93%
    05:00 +17°C° 0 mm 2 mps 747 mmHg 92%
    06:00 +18°C° 0 mm 2 mps 748 mmHg 92%
    07:00 +19°C° 0 mm 2 mps 748 mmHg 87%
    08:00 +20°C° 0 mm 3 mps 748 mmHg 83%
    09:00 +21°C° 0 mm 3 mps 748 mmHg 79%
    10:00 +22°C° 0 mm 3 mps 748 mmHg 77%
    11:00 +24°C° 0 mm 3 mps 748 mmHg 75%
    12:00 +24°C° 0 mm 3 mps 748 mmHg 72%
    13:00 +25°C° 0.1 mm 3 mps 748 mmHg 72%
    14:00 +25°C° 0.1 mm 3 mps 748 mmHg 72%
    15:00 +25°C° 0.1 mm 3 mps 748 mmHg 71%
    16:00 +25°C° 0.1 mm 3 mps 747 mmHg 73%
    17:00 +25°C° 0.1 mm 3 mps 747 mmHg 75%
    18:00 +24°C° 0.1 mm 2 mps 747 mmHg 78%
    19:00 +23°C° 0.1 mm 2 mps 747 mmHg 83%
    20:00 +20°C° 0.1 mm 2 mps 747 mmHg 88%
    21:00 +19°C° 0.1 mm 2 mps 748 mmHg 93%
    22:00 +19°C° 0 mm 2 mps 748 mmHg 93%
    23:00 +18°C° 0 mm 2 mps 748 mmHg 94%

    10 June, Wednesday

    Time Temperature Precipitation Wind Pressure Humidity
    00:00 +18°C° 0 mm 2 mps 748 mmHg 94%
    01:00 +17°C° 0 mm 2 mps 748 mmHg 94%
    02:00 +18°C° 0 mm 1 mps 748 mmHg 94%
    03:00 +18°C° 0 mm 1 mps 748 mmHg 94%
    04:00 +18°C° 0 mm 1 mps 748 mmHg 94%
    05:00 +18°C° 0 mm 2 mps 748 mmHg 94%
    06:00 +18°C° 0 mm 2 mps 748 mmHg 94%
    07:00 +20°C° 0 mm 2 mps 748 mmHg 89%
    08:00 +21°C° 0 mm 2 mps 748 mmHg 85%
    09:00 +24°C° 0 mm 2 mps 748 mmHg 81%
    10:00 +25°C° 0 mm 2 mps 748 mmHg 77%
    11:00 +26°C° 0 mm 2 mps 748 mmHg 74%
    12:00 +27°C° 0 mm 3 mps 748 mmHg 71%
    13:00 +27°C° 0.1 mm 2 mps 748 mmHg 71%
    14:00 +27°C° 0.1 mm 2 mps 748 mmHg 71%
    15:00 +27°C° 0.1 mm 2 mps 748 mmHg 72%
    16:00 +27°C° 1.2 mm 2 mps 748 mmHg 75%
    17:00 +27°C° 1.2 mm 2 mps 747 mmHg 78%
    18:00 +26°C° 1.2 mm 2 mps 747 mmHg 81%
    19:00 +25°C° 0.2 mm 2 mps 747 mmHg 83%
    20:00 +24°C° 0.2 mm 2 mps 747 mmHg 86%
    21:00 +22°C° 0.2 mm 3 mps 748 mmHg 89%
    22:00 +21°C° 0 mm 2 mps 748 mmHg 90%
    23:00 +20°C° 0 mm 2 mps 748 mmHg 91%
    Show more